Hourly Data Report for February 03, 2002

SHERBROOKE A
QUEBEC

45°26'00.000" N
71°41'00.000" W
241.40 m
7028124
71610
YSC

Download Data

Hourly Data (February 2002)
Hourly Data Report for February 3, 2002
TIME
LST
Temp Definition
°C
Dew Point Definition
°C
Rel Hum Definition
%
Precip. Amount Definition
mm

Wind Dir Definition
10's deg

Wind Spd Definition
km/h
Visibility Definition
km
Stn Press Definition
kPa
Hmdx Definition


Wind Chill Definition


Weather Definition


00:00 -22.1 -26.5 67     0 15.0 99.54      
01:00 -22.7 -27.8 63     0 15.0 99.53      
02:00 -23.9 -27.8 70   8 4 15.0 99.52   -28  
03:00 -23.4 -27.5 69   10 6 15.0 99.48   -29  
04:00 -23.9 -28.3 67   10 4 15.0 99.47   -28  
05:00 -23.9 -28.3 67   10 6 15.0 99.42   -30  
06:00 -22.6 -27.1 67   9 7 15.0 99.39   -29  
07:00 -22.7 -27.1 67   8 7 15.0 99.34   -29  
08:00 -20.8 -25.3 67   9 9 24.1 99.30   -28 Mostly Cloudy
09:00 -17.6 -22.9 63   9 6 24.1 99.23   -22 Cloudy
10:00 -15.0 -20.6 62     0 24.1 99.14     Cloudy
11:00 -11.4 -18.3 57   6 4 24.1 99.00   -14 Cloudy
12:00 -8.5 -14.4 62   11 11 19.3 98.78   -14 Snow
13:00 -7.3 -12.5 66   11 13 16.1 98.65   -13 Snow
14:00 -6.0 -10.9 68   13 13 24.1 98.46   -11 Snow
15:00 -3.9 -10.3 61   17 15 19.3 98.36   -9 Snow
16:00 -3.9 -9.1 67   18 15 2.4 98.36   -9 Snow
17:00 -4.9 -7.9 79   16 7 2.4 98.33   -8 Snow
18:00 -5.2 -8.2 79   13 7 12.9 98.28   -8 Snow
19:00 -5.7 -8.8 79   12 11 9.7 98.19   -10 Snow
20:00 -5.4 -8.8 77   12 7 15.0 98.13   -9 Snow
21:00 -4.4 -8.2 75   15 9 11.3 98.06   -8 Snow
22:00 -5.0 -8.1 79   8 4 11.3 98.00   -7 Snow
23:00 -4.3 -7.5 78   9 4 9.7 97.93   -6 Snow

Notes on Data Quality.

Legend

  • E = Estimated
  • M = Missing
  • NA = Not Available*
  • [empty] = Indicates an unobserved value
Date modified: